* Astronomy

Members Login
Username 
 
Password 
    Remember Me  
Post Info TOPIC: Asteroid 2012 JH11


L

Posts: 131433
Date:
Asteroid 2012 JH11
Permalink  
 


Orbital elements:
2012 JH11                                                Earth MOID = 0.1855 AU
Epoch 2012 Mar. 14.0 TT = JDT 2456000.5                 MPC
M 341.29623              (2000.0)            P               Q
n   0.39589253     Peri.  358.17788     -0.73377009     +0.67427354
a   1.8368958      Node   224.60544     -0.62182564     -0.71591148
e   0.3498935      Incl.    6.81157     -0.27370482     -0.18117930
P   2.49           H   21.9           G   0.15           U   8

MPEC 2012 - J53



__________________
Page 1 of 1  sorted by
 
Quick Reply

Please log in to post quick replies.



Create your own FREE Forum
Report Abuse
Powered by ActiveBoard